Location: Houhaj�rvi
(61.2833°N, 23.0000°E)
Time: 02:46:00
(UTC+00:00)

CARTOSAT-1 - Pass Details

Date: 27 February 2020
Orbit: 617 x 618 km, 97.8° (Epoch: 05 April)

Event Time Altitude Azimuth Distance (km) Brightness Sun altitude
Exits shadow 18:44:08 36° 45° (NE) 997 4.4 -21.8°
Drops below altitude 10° 18:47:43 10° 353° (N) 1,999 6.6 -22.2°
Sets 18:50:01 0° 345° (NNW) 2,909 7.6 -22.4°
